Location: ?????????
(54.7630°N, 39.4991°E)
Time: 15:53:27
(UTC+00:00)

Meteor 1-21 Rocket - Pass Details

Date: 14 April 2026
Orbit: 833 x 905 km, 81.2° (Epoch: 17 May)

Event Time Altitude Azimuth Distance (km) Brightness Sun altitude
Rises 17:03:32 0° 347° (NNW) 3,405 8.0 -6.2°
Reaches altitude 10° 17:06:00 10° 351° (N) 2,473 7.2 -6.5°
Maximum altitude 17:11:31 57° 70° (ENE) 1,002 4.4 -7.2°
Drops below altitude 10° 17:17:05 10° 149° (SSE) 2,497 6.1 -7.9°
Enters shadow 17:18:24 - 152° (SSE) 2,996 6.5 -8.0°
